Location: Bergen
(60.3910°N, 5.3250°E)
Time: 01:55:02
(UTC+02:00)

ISS - Visible Passes

Search period start: 21 May 2019 00:00
Search period end: 31 May 2019 00:00
Orbit: 407 x 410 km, 51.6° (Epoch: 21 May)

Date Brightness Start Highest point End Pass type
(mag) Time Alt. Az. Time Alt. Az. Time Alt. Az.
21 May -2.3 00:24:58 10° SW 00:27:18 18° S 00:29:39 10° SE visible
21 May -2.1 02:01:02 10° SW 02:03:04 15° SSW 02:04:32 12° SSE visible
21 May -2.2 23:34:22 10° SSW 23:36:36 17° S 23:38:49 10° SE visible
22 May -2.2 01:10:06 10° SW 01:12:22 17° S 01:14:14 12° SSE visible
23 May -2.2 00:19:17 10° SW 00:21:38 18° S 00:24:00 10° SE visible
23 May -1.7 01:56:02 10° SW 01:57:13 12° SSW 01:57:13 12° SSW visible
24 May -1.9 01:04:46 10° SW 01:06:38 14° SSW 01:07:41 13° S visible
25 May -2.0 00:13:45 10° SW 00:15:54 16° SSW 00:18:04 10° SSE visible
26 May -1.6 01:00:06 10° SW 01:00:48 11° SSW 01:01:28 10° SSW visible
27 May -1.7 00:08:27 10° SW 00:10:05 13° SSW 00:11:42 10° S visible
